Location: Coupvray
(48.8929°N, 2.7967°E)
Time: 21:57:09
(UTC+00:00)

Cosmos 724 - Pass Details

Date: 02 November 2020
Orbit: 851 x 943 km, 65.6° (Epoch: 01 December)

Event Time Altitude Azimuth Distance (km) Brightness Sun altitude
Exits shadow 03:30:50 16° 349° (NNW) 2,223 6.4 -31.0°
Maximum altitude 03:33:20 20° 19° (NNE) 2,012 6.4 -30.6°
Drops below altitude 10° 03:37:45 10° 65° (ENE) 2,647 7.6 -29.9°
Sets 03:41:04 0° 82° (E) 3,599 8.7 -29.3°
